Weather in Zdzieszowice

Poland     50°25′35″N   18°06′52″E
temp.,
°C
wind,
m/s
gust,
m/s
humid.,
%
clouds,
%
prec.,
mm/h
press.,
hPa
HPBL,
m
13 april, tue
tue1323:00+1nw51197100 1.1 1025491
02:00+1nnw51298100 5.4 1026636
05:00+1nnw36100100 2.8 1027206
08:00+1n499598 3.4 1028713
11:00+4nnw5784100 0.3 10271025
14:00+5nnw5784100 1.1 1026919
17:00+6n5870100 0.5 10251477
20:00+4nnw3876100 0.6 1025190
14 april, wed
wed1423:00+3nw3981100 0.0 1025213
02:00+2nw41181100 0.0 1024369
05:00+2nw41086100 0.0 1024381
08:00+2nw5985100 0.0 1025488
11:00+4nw6867100 0.0 10251302
14:00+5nw7869100 0.4 10241178
17:00+5nnw5869100 0.4 10231165
20:00+3nw51082100 0.6 1023433
15 april, thu
thu1523:00+3nw4986100 0.2 1023420
02:00+2nw3698100 0.4 1023508
05:00+2nnw5897100 0.6 1023621
08:00+2nw61091100 0.9 10231005
11:00+2nw71193100 0.6 1023897
14:00+3nw61196100 1.7 1023785
17:00+2nw61297100 1.3 1023700
20:00+2wnw51298100 2.1 1022613
16 april, fri
fri1623:00+1wnw51198100 1.2 1021698
02:00+1wnw4898100 1.8 1021587
05:00+1wnw4798100 0.3 1021436
08:00+1wnw4899100 0.8 1021344
11:00+1wnw4898100 0.5 1021355
14:00+2wnw4898100 0.8 1022369
17:00+2wnw4898100 0.2 1022364
20:00+2wnw3798100 0.2 1023450
17 april, sat
sat1723:00+2wnw3699100 0.0 1024483
02:00+2wnw3698100 0.1 1023489
05:00+3wnw3698100 0.1 1022519
08:00+2wnw3798100 1.5 1022360
11:00+3wnw3698100 0.3 1022348
14:00+4nw3496100 0.4 1022358
17:00+5n1295100 0.0 1023353
20:00+4e129765 0.1 102345